SCP
0 0 0 0 0 0 0 0 0 0 0 0 0 0 0 0 0 0 0 0 0 0 0 0 0 0 0 0 0 0 0 0 0 0 0 0 0 0 0 0 1 1 1
0 0 0 0 0 0 0 0 0 0 0 0 0 0 0 0 0 0 0 0 0 0 0 0 0 0 0 0 0 0 0 0 0 0 0 0 0 0 0 0 0 1 1
0 0 0 0 0 0 0 0 0 0 0 0 0 0 0 0 0 0 0 0 0 0 0 0 0 0 0 0 0 0 0 0 0 0 0 0 0 0 0 0 0 0 0
0 0 0 0 0 0 0 0 0 0 0 0 0 0 0 0 0 0 0 0 0 0 0 0 0 0 0 0 0 0 0 0 0 0 0 0 0 0 0 0 0 0 0
0 0 0 0 0 0 0 0 0 0 0 0 0 0 0 0 0 0 0 0 0 0 0 0 0 0 0 0 0 0 0 0 0 0 0 0 0 0 0 0 0 0 0
0 0 0 0 0 0 0 0 0 0 0 0 0 0 0 0 0 0 0 0 0 0 0 0 0 0 0 0 0 0 0 0 0 0 0 0 0 0 0 0 0 0 0
0 0 0 0 0 0 0 0 0 0 0 0 0 0 0 0 0 0 0 0 0 0 0 0 0 0 0 0 0 0 0 0 0 0 0 0 0 0 0 0 0 0 0
0 0 0 0 0 0 0 0 0 0 0 0 0 0 0 0 0 0 0 0 0 0 0 0 0 0 0 0 0 0 0 0 0 0 0 0 0 0 0 0 0 0 0
0 0 0 0 0 0 0 0 0 0 0 0 0 0 0 0 0 0 0 0 0 0 0 0 0 0 0 0 0 0 0 0 0 0 0 0 0 0 0 0 0 0 0
0 0 0 0 0 0 0 0 0 0 0 0 0 0 0 0 0 0 0 0 0 0 0 0 0 0 0 0 0 0 0 0 0 0 0 0 0 0 0 0 0 0 0
0 0 0 0 0 0 0 0 0 0 0 0 0 0 0 0 0 0 0 0 0 0 0 0 0 0 0 0 0 0 0 0 0 0 0 0 0 0 0 0 0 0 0
0 0 0 0 0 0 0 0 0 0 0 0 0 0 0 0 0 0 0 0 0 0 0 0 0 0 0 0 0 0 0 0 0 0 0 0 0 0 0 0 0 0 0
0 0 0 0 0 0 0 0 0 0 0 0 0 0 0 0 0 0 0 0 0 0 0 0 0 0 0 0 0 0 0 0 0 0 0 0 0 0 0 0 0 0 0
0 0 0 0 0 0 0 0 0 0 0 0 0 0 0 0 0 0 0 0 0 0 0 0 0 0 0 0 0 0 0 0 0 0 0 0 0 0 0 0 0 0 0
0 0 0 0 0 0 0 0 0 0 0 0 0 0 0 0 0 0 0 0 0 0 0 0 0 0 0 0 0 0 0 0 0 0 0 0 0 0 0 0 0 0 0
0 0 0 0 0 0 0 0 0 0 0 0 0 0 0 0 0 0 0 0 0 0 0 0 0 0 0 0 0 0 0 0 0 0 0 0 0 0 0 0 0 0 0
0 0 0 0 0 0 0 0 0 0 0 0 0 0 0 0 0 0 0 0 0 0 0 0 0 0 0 0 0 0 0 0 0 0 0 0 0 0 0 0 0 0 0
0 0 0 0 0 0 0 0 0 0 0 0 0 0 0 0 0 0 0 0 0 0 0 0 0 0 0 0 0 0 0 0 0 0 0 0 0 0 0 0 0 0 0
0 0 0 0 0 0 0 0 0 0 0 0 0 0 0 0 0 0 0 0 0 0 0 0 0 0 0 0 0 0 0 0 0 0 0 0 0 0 0 0 0 0 0
0 0 0 0 0 0 0 0 0 0 0 0 0 0 0 0 0 0 0 0 0 0 0 0 0 0 0 0 0 0 0 0 0 0 0 0 0 0 0 0 0 0 0
0 0 0 0 0 0 0 0 0 0 0 0 0 0 0 0 0 0 0 0 0 0 0 0 0 0 0 0 0 0 0 0 0 0 0 0 0 0 0 0 0 0 0
0 0 0 0 0 0 0 0 0 0 0 0 0 0 0 0 0 0 0 0 0 0 0 0 0 0 0 0 0 0 0 0 0 0 0 0 0 0 0 0 0 0 0
0 0 0 0 0 0 0 0 0 0 0 0 0 0 0 0 0 0 0 0 0 0 0 0 0 0 0 0 0 0 0 0 0 0 0 0 0 0 0 0 0 0 0
0 0 0 0 0 0 0 0 0 0 0 0 0 0 0 0 0 0 0 0 0 0 0 0 0 0 0 0 0 0 0 0 0 0 0 0 0 0 0 0 0 0 0
0 0 0 0 0 0 0 0 0 0 0 0 0 0 0 0 0 0 0 0 0 0 0 0 0 0 0 0 0 0 0 0 0 0 0 0 0 0 0 0 0 0 0
0 0 0 0 0 0 0 0 0 0 0 0 0 0 0 0 0 0 0 0 0 0 0 0 0 0 0 0 0 0 0 0 0 0 0 0 0 0 0 0 0 0 0
Wind_Speed
4 5 6 6 6 7 7 8 8 8 9 9 10 10 10 10 10 9 11 10 11 11 10 11 11 11 9 8 7 7 7 7 8 6 4 3 4 5 4 5 6 7 8
4 5 6 6 7 8 8 8 8 9 9 9 10 10 10 10 9 10 11 11 11 12 12 11 11 10 11 10 8 8 8 7 7 8 5 4 5 5 5 6 6 7 7
6 7 7 7 8 8 9 9 9 9 9 9 9 10 10 10 10 10 11 11 12 12 12 12 12 11 11 10 10 9 8 8 7 7 7 5 4 4 4 6 6 4 6
6 7 8 8 8 9 9 9 9 9 9 9 9 10 10 10 10 11 10 11 11 12 12 12 12 12 12 11 10 11 10 9 8 8 7 6 5 4 4 4 5 5 5
7 8 8 8 9 9 9 9 9 9 9 9 9 10 10 9 9 9 10 11 11 12 12 12 13 12 10 9 9 10 10 9 8 8 8 6 6 5 5 4 4 4 5
7 8 8 9 9 9 9 9 9 9 9 9 9 10 10 9 3 4 9 12 12 12 12 12 12 12 12 13 13 13 12 11 10 9 8 8 7 6 5 5 4 4 5
7 8 8 9 9 9 10 10 10 10 9 9 9 9 10 8 4 6 8 11 13 12 12 11 11 10 10 12 13 16 16 16 14 12 11 9 7 7 6 7 6 6 5
7 8 8 9 9 10 10 10 10 9 9 9 9 10 10 8 4 7 8 12 12 12 12 12 12 12 11 10 11 12 13 14 15 14 12 10 9 6 7 7 6 6 5
7 8 8 9 10 10 10 10 10 9 10 9 9 9 9 8 5 6 8 10 10 11 11 11 12 12 9 7 11 13 13 12 11 12 11 9 6 5 5 6 6 6 5
8 8 8 9 9 10 10 10 10 9 9 10 9 9 9 9 5 5 7 9 9 9 8 9 10 11 8 7 11 12 13 12 11 11 12 11 11 11 11 10 9 7 6
8 8 9 9 9 10 9 9 9 9 9 9 10 9 9 8 7 6 6 8 8 8 8 7 6 8 10 10 11 12 11 10 10 11 10 11 11 10 11 12 10 8 7
7 8 9 9 9 8 8 9 8 9 9 9 8 9 7 6 5 4 6 8 9 10 9 7 4 3 7 9 10 10 9 9 9 9 9 10 10 10 9 10 11 10 8
8 9 9 9 9 8 8 9 8 7 7 8 8 8 7 6 4 6 9 10 10 9 8 7 7 6 8 10 13 12 11 10 10 9 9 10 9 9 8 8 9 9 8
8 9 8 9 9 8 6 7 7 7 7 8 8 8 8 7 6 5 5 5 7 9 8 7 10 11 10 9 8 11 11 9 9 8 8 7 7 7 8 8 8 8 7
8 8 8 8 8 7 7 6 7 7 6 8 9 9 8 8 7 8 8 8 8 6 7 7 6 5 6 7 7 7 8 8 9 8 7 7 7 7 7 7 7 7 8
8 7 7 7 6 7 7 7 5 8 8 10 12 11 9 8 10 10 10 10 11 9 7 7 6 5 5 5 5 6 7 7 8 8 8 7 7 7 7 7 7 8 8
8 8 7 7 7 7 7 8 8 6 8 11 11 11 11 11 11 11 10 10 11 8 7 6 6 5 5 5 5 6 7 7 7 8 8 8 8 8 8 8 8 8 8
8 6 6 7 7 7 7 7 7 8 8 6 5 8 8 10 10 10 9 8 7 7 7 6 5 5 4 5 5 6 6 6 7 7 8 8 8 8 8 9 9 9 8
7 6 5 7 7 7 7 7 7 8 7 7 7 3 4 7 9 9 7 6 6 5 5 5 5 4 4 4 4 5 5 6 7 7 7 8 7 8 8 9 8 9 9
6 5 6 7 7 7 6 6 7 7 7 7 6 6 6 6 5 3 4 4 5 5 5 5 4 4 4 3 3 4 4 5 6 7 7 7 7 8 9 9 8 9 9
6 4 6 7 6 6 6 6 6 7 7 6 6 5 6 8 6 5 5 4 4 5 5 5 4 4 3 3 3 4 4 4 5 6 6 7 7 8 8 8 9 8 8
6 6 5 6 5 5 6 6 6 6 6 7 6 4 3 6 5 5 5 5 5 5 5 5 4 3 2 2 3 3 4 4 5 5 5 6 6 7 7 8 8 8 8
6 6 6 5 5 4 6 6 6 6 6 6 6 5 5 5 5 5 5 5 5 5 5 5 5 4 3 2 2 3 3 3 4 5 5 6 6 6 6 7 9 9 9
6 5 5 5 5 6 5 5 5 5 5 6 5 5 5 5 5 6 6 5 5 5 4 4 4 5 5 3 2 2 1 2 3 4 7 6 6 6 7 7 8 10 9
5 5 5 5 5 5 5 5 5 5 5 5 5 5 5 5 5 5 5 5 6 5 5 5 4 4 5 4 3 2 4 3 4 4 5 6 7 7 7 8 8 8 9
5 5 5 4 4 5 5 5 5 5 4 4 5 5 5 5 5 5 5 5 6 6 5 4 5 5 5 3 3 4 2 2 3 5 5 5 6 6 7 7 9 8 9
Wind_Direction
319 316 312 308 308 299 292 293 295 295 295 290 290 289 286 282 279 275 271 273 267 264 261 256 252 257 256 251 247 247 249 250 258 261 252 246 247 263 250 238 225 216 203
319 311 310 311 307 304 303 303 299 295 291 289 289 286 282 280 278 274 273 273 270 266 264 262 257 252 246 250 249 247 247 248 253 258 256 248 240 245 243 238 232 221 217
323 315 318 315 314 310 308 305 301 297 293 292 289 284 282 281 278 274 273 273 271 268 266 262 259 255 252 248 246 245 244 241 240 251 252 249 247 245 243 235 229 227 222
320 318 321 319 316 312 310 307 302 297 294 292 290 287 284 280 278 276 275 274 273 271 267 263 260 256 252 250 247 244 243 244 240 242 246 242 237 231 235 235 221 207 208
316 317 320 318 316 312 310 308 306 299 294 294 293 289 286 279 276 287 289 282 277 273 269 263 258 258 265 263 263 254 245 238 237 234 235 235 231 219 224 230 229 213 206
312 316 320 317 316 314 311 309 306 302 300 297 292 291 287 284 331 317 288 285 280 275 271 267 262 248 238 234 248 260 265 256 247 242 236 232 230 228 227 235 226 215 213
309 313 316 316 315 315 313 311 309 305 301 297 294 290 287 287 271 265 265 276 275 272 270 268 264 259 242 240 230 230 240 246 250 255 252 246 235 226 228 233 227 222 230
306 311 316 317 316 315 311 310 308 305 302 298 295 292 289 287 255 258 262 265 268 268 264 262 261 264 258 254 250 242 238 232 228 231 242 247 248 239 227 237 246 234 232
309 315 319 317 313 311 310 310 309 306 302 299 292 291 289 288 258 252 266 278 270 268 265 260 258 259 250 237 252 252 249 243 230 227 235 243 248 235 228 231 226 226 219
316 318 317 311 308 306 307 307 306 303 298 298 297 293 290 290 282 255 264 278 280 278 270 263 247 248 259 232 244 248 247 245 241 217 215 220 225 217 208 224 227 223 223
315 312 308 306 304 300 302 303 303 300 300 297 297 294 288 285 276 247 250 277 286 286 281 273 263 212 228 231 241 250 253 261 250 237 226 219 218 218 213 213 220 222 220
305 303 304 306 304 305 303 301 300 299 295 293 292 294 292 284 274 261 239 252 275 281 279 277 280 214 225 231 233 243 250 255 247 238 229 222 217 215 214 214 213 218 222
301 302 305 306 304 300 300 301 299 297 296 301 301 303 306 310 290 231 239 246 250 265 278 288 284 261 245 236 231 232 233 234 235 232 231 226 220 212 207 207 206 207 214
296 301 302 302 302 307 302 299 305 307 307 307 307 308 310 310 311 320 304 272 247 251 263 262 241 238 240 251 233 215 223 227 227 228 230 227 220 208 205 202 200 196 197
295 298 300 302 308 306 302 301 300 304 314 304 307 308 308 309 336 342 313 309 314 318 308 284 271 252 236 233 231 224 221 216 218 221 221 220 217 213 207 203 202 198 202
292 299 306 309 313 308 309 305 262 258 269 260 259 272 290 291 307 304 294 286 284 284 280 268 267 262 252 242 237 230 224 220 218 216 214 213 214 213 210 202 201 202 204
288 298 304 307 309 307 308 310 313 293 246 246 247 247 256 285 293 289 284 283 275 264 255 257 256 255 252 247 239 234 229 222 216 216 212 209 209 209 208 206 203 203 203
280 283 284 293 300 303 304 306 306 310 313 309 251 227 244 265 274 275 276 279 262 237 255 266 266 261 254 246 242 242 233 219 214 216 213 208 208 208 205 206 206 204 201
279 287 298 302 299 298 301 301 302 306 308 310 316 292 240 261 254 252 254 266 287 289 284 282 275 270 263 250 242 239 233 222 215 211 212 208 207 211 210 207 203 196 203
262 253 271 291 295 298 301 307 309 308 308 310 315 323 327 306 300 279 262 287 295 300 297 293 292 287 275 259 246 239 230 223 214 211 207 206 208 211 209 207 205 197 200
276 264 232 267 283 299 307 307 305 302 306 311 316 335 325 309 315 320 313 313 309 308 308 304 296 283 267 241 235 232 228 225 220 217 208 203 207 211 212 206 204 203 199
268 275 279 286 295 301 307 303 300 302 306 310 313 313 273 289 317 330 328 323 318 313 310 303 298 295 289 265 246 243 238 228 220 223 218 208 205 212 213 207 202 201 202
259 271 278 283 288 288 278 286 297 304 307 312 317 323 322 323 326 327 329 334 331 323 320 315 309 308 307 285 262 253 248 237 224 215 216 217 209 209 213 211 210 203 204
253 264 275 284 287 289 291 295 298 306 313 320 323 325 325 326 322 324 322 328 331 328 325 317 311 314 318 312 298 268 258 289 265 232 223 224 218 211 210 213 217 209 204
249 257 266 274 281 288 291 296 302 307 313 317 322 325 328 327 326 327 330 331 328 326 332 327 325 321 326 327 317 355 42 9 323 302 245 232 224 219 215 214 214 210 199
244 252 258 267 277 285 290 296 302 305 306 315 320 322 323 323 327 333 334 338 331 327 329 330 339 338 335 336 13 22 25 335 315 308 283 251 231 223 216 218 213 204 196